Find Starlink 6350

NORAD ID: 57226 Int'l Des: 2023-094 Owner: SPXS Country: US Constellation: starlink operational
LEOCIRCULAR

現在のビュー

3D地球を読み込み中...

About Starlink 6350

Starlink 6350 (NORAD 57226) is a starlink constellation satellite (v1.5) launched Jul 7, 2023 by SPXS of US. It operates in LEO, CIRCULAR orbit with a mass of 305.00 kg.

Starlink 6350について

説明を読み込み中...

次回通過

Passes for default location (London). Set your location on the main map for personalized predictions.

高度履歴

Loading altitude history...

軌道要素

1 57226U 23094J 26166.77394177 .00001587 00000-0 67181-4 0 9994
2 57226 43.0011 197.0089 0001545 277.9743 82.0933 15.27579272162114
Epoch: Jun 15, 2026 • Age: 27 hours

現在のステータス

高度 487.2 km
速度 7.63 km/s
衛星直下点 43.11°N, 53.91°E
打ち上げ日 Jul 7, 2023
運用期間 2.9 years
タイプ internet

技術仕様

分類 Payload
質量 305.00 kg
乾燥質量 290.00 kg
総質量 305.00 kg
長さ 0.20 m
直径 2.80 m
スパン 9.00 m
形状 Box + pan
製造者 SPXS
バスタイプ Starlink
フェーズステータス In Orbit
所有者/国 SPXS/US

Most Searched